Regional Weather Roundup
Issued by NWS New Orleans/Baton Rouge, LA

Home | Current Version | Previous Version | Text Only | Print | Product List | Glossary Off
Versions: 1 2 3 4 5 6 7 8 9 10 11 12 13 14 15 16 17 18 19 20 21 22 23 24 25 26 27 28 29 30 31 32 33 34 35 36 37 38 39 40 41 42 43 44 45 46 47 48 49 50

883
ASUS44 KLIX 301505
RWRLIX
NEW ORLEANS REGIONAL WEATHER ROUNDUP
NATIONAL WEATHER SERVICE NEW ORLEANS LA
1000 AM CDT THU OCT 30 2014

NOTE: "FAIR" INDICATES FEW OR NO CLOUDS BELOW 12,000 FEET WITH NO
      SIGNIFICANT WEATHER AND/OR OBSTRUCTIONS TO VISIBILITY.
      SKY/WX - SKY CONDITION AND SIGNIFICANT WEATHER.
      TMP - AIR TEMPERATURE.     DP    - DEWPOINT TEMPERATURE.
      RH  - RELATIVE HUMIDITY.   PRES  - PRESSURE.
      HI  - HEAT INDEX.          WCI   - WIND CHILL INDEX.

*  THESE STATIONS ARE NOT NWS OR FAA STATIONS AND ARE NOT UNDER
   NWS QUALITY CONTROL.

LAZ038-040-048-061>063-065>067-069-301600-
SOUTHEAST LOUISIANA

CITY           SKY/WX    TMP DP  RH WIND       PRES   REMARKS
N.O. AUDUBON   NOT AVBL
N.O. INTL ARPT SUNNY     67  47  48 NE15      30.12S
N.O. LAKEFRONT SUNNY     67  48  50 NE15      30.13R
N.O. DOWNTOWN*   N/A     66  43  42 NE7       30.12S
SLIDELL        SUNNY     65  45  48 NE6       30.13R
BATON ROUGE    SUNNY     63  45  51 NE8       30.15R
BOOTHVILLE     SUNNY     70  58  65 NE12G20   30.09R
BELLE CHASSE   SUNNY     69  44  40 NE15G21   30.11S
BOGALUSA*        N/A     63  45  51 NE7       30.16S
NEW ROADS*       N/A     63  46  52 E7        30.16R
GONZALES*        N/A     64  46  52 NE8       30.13S
HAMMOND*       NOT AVBL
HOUMA*         SUNNY     68  48  49 NE14      30.11R
PORT FOURCHON* SUNNY     70  57  64 NE13G18   30.13R

$$

MSZ070-080>082-301600-
SOUTHERN MISSISSIPPI

CITY           SKY/WX    TMP DP  RH WIND       PRES   REMARKS
MCCOMB         SUNNY     62  42  47 NE7       30.15R
GULFPORT       SUNNY     66  44  45 N10       30.11S
BILOXI         SUNNY     65  47  51 NE10      30.11S
PASCAGOULA     SUNNY     65  47  52 NE8       30.11S
STENNIS ARPT*  SUNNY     64  39  39 NE9       30.13R

$$

COASTAL OBSERVATIONS
LAKE AND NEARSHORE STATIONS

STATION/POSITION TIME  TEMP    WIND        PRES    WAVE
                       AIR SEA DIR/SP/G            HT/PER
                 (UTC) (F)     (DEG/KT/KT) (MB)    (FT/S)
PASCAGOULA       1500   64      30/  8/ 13 1018.9
WAVELAND YACHT   1500   62      30/  9/ 11 1019.1
GRAND ISLE       1500   69 76   50/ 13/ 17 1019.3
SOUTHWEST PASS   1500   71 78              1018.7
NEW CANAL        1500   64 70   50/ 16/ 18 1020.2
SHELL BEACH      1500   66 68   40/ 17/ 20 1019.4

OFFSHORE STATIONS

STATION/POSITION TIME  TEMP    WIND        PRES    WAVE
                       AIR SEA DIR/SP/G            HT/PER
                 (UTC) (F)     (DEG/KT/KT) (MB)    (FT/S)
64 S DAUPHIN ISL 1447   71 78   50/ 17/ 21 1018.1    4/ 5

$$




USA.gov is the U.S. government's official web portal to all federal, state and local government web resources and services.